Theta_e
331 332 333 333 335 334 334 333 335 338 336 337 337 336 337 337 337 339 339 339 339 338 336 336 336 334 334 333 334 335 334 332 330 328 328 328 326 325 331 331 331 331 331 330 323 320 317 315 318 323 324 323 320 321 321 320 321 322 324 324 323 323 324
334 334 334 333 333 335 333 334 335 334 338 339 338 338 337 337 338 339 338 339 338 337 334 334 336 335 334 335 335 335 332 333 332 333 331 329 329 327 328 327 329 328 329 329 327 327 319 316 315 317 317 320 318 320 321 320 320 321 322 323 322 323 324
334 334 334 332 333 333 332 331 332 331 335 339 339 339 338 337 338 338 339 338 336 337 337 335 336 335 335 335 335 335 333 331 331 333 331 330 331 331 331 328 326 324 325 326 325 322 322 324 316 316 316 314 312 316 321 319 320 319 315 316 319 321 322
333 333 332 330 331 330 331 330 330 330 332 335 337 340 341 340 339 340 338 338 338 340 341 335 335 335 335 334 332 334 335 333 332 331 329 329 330 331 330 328 327 325 323 322 322 323 322 319 318 316 316 315 313 313 317 320 316 316 315 320 315 316 317
334 332 328 329 329 328 331 329 328 328 330 336 337 339 337 337 341 340 341 342 338 341 340 337 334 336 336 334 332 333 335 334 332 330 329 328 329 330 331 330 328 328 327 326 326 324 322 320 321 315 315 314 313 313 315 319 316 314 313 312 313 314 312
335 335 331 330 330 330 330 331 331 330 334 334 335 334 337 339 339 339 340 338 340 341 340 337 335 333 338 336 332 334 334 332 331 331 331 330 331 330 329 331 330 329 327 329 327 326 325 325 325 316 316 315 309 309 311 313 312 312 313 312 312 311 310
333 334 338 333 333 330 331 331 334 334 333 335 334 335 336 336 337 338 337 337 338 338 338 338 338 336 334 336 335 332 332 333 332 331 330 330 331 331 331 330 330 329 327 327 328 328 327 325 322 319 316 312 309 306 308 309 310 308 309 311 311 310 309
333 334 335 335 335 334 333 334 334 335 334 333 334 336 335 336 336 336 338 337 337 338 336 336 337 335 334 332 333 333 330 332 331 330 330 329 330 332 331 332 331 328 327 328 328 329 328 325 326 323 317 306 307 305 304 307 307 308 306 308 310 309 310
333 334 336 336 339 337 335 334 334 334 335 335 335 336 337 337 335 335 335 335 337 337 340 338 334 333 336 333 332 333 330 333 331 329 330 330 329 330 331 331 330 329 328 328 329 330 326 327 328 327 326 310 306 302 306 303 303 303 308 306 308 312 312
333 335 335 336 337 338 337 335 335 335 336 335 335 338 337 338 336 336 333 333 336 337 335 338 334 333 334 333 334 334 331 331 330 329 331 329 329 329 328 329 329 330 329 329 329 332 331 329 328 327 322 315 311 306 303 300 305 301 305 307 305 309 313
336 335 336 334 337 336 336 336 334 334 334 335 334 336 337 336 336 334 336 332 335 336 335 333 333 333 336 334 333 331 331 330 329 329 329 330 327 328 328 328 329 329 329 330 331 331 330 328 328 326 321 320 318 309 306 303 303 305 305 307 308 308 311
334 335 334 335 335 333 333 333 334 334 334 334 333 334 334 334 334 335 334 332 333 334 334 334 333 332 333 333 335 331 329 329 329 327 327 328 329 329 328 329 330 330 330 330 331 331 330 329 327 325 322 322 319 319 310 309 302 308 308 307 307 310 311
333 334 334 334 334 333 332 332 332 332 333 332 333 332 332 331 332 331 333 331 332 332 332 332 333 331 332 333 333 332 332 332 331 327 326 327 328 331 331 330 330 329 330 330 330 330 329 328 327 325 322 321 319 320 313 310 305 307 310 311 307 309 312
334 333 333 334 332 332 332 331 331 332 331 331 331 334 332 330 330 330 328 330 328 331 331 332 334 333 331 332 333 333 331 330 329 330 329 327 329 331 330 330 329 330 330 328 327 328 328 326 325 325 323 323 321 317 315 311 307 308 312 319 308 308 312
332 331 332 332 331 331 331 331 332 330 331 329 329 327 329 334 332 332 328 326 331 328 329 330 332 333 329 330 331 333 332 330 328 329 328 328 330 331 331 329 328 329 330 329 328 327 326 323 323 321 319 319 316 318 318 312 309 308 308 313 310 309 310
329 331 332 332 331 329 331 331 330 331 329 331 332 330 328 331 330 329 328 328 326 328 329 329 332 332 331 329 328 329 331 330 328 326 326 327 329 330 329 330 328 328 331 328 327 326 324 322 321 319 317 315 312 314 313 314 310 310 310 311 315 308 308
328 329 330 331 331 331 331 330 330 329 327 330 328 331 326 325 329 329 327 326 326 328 328 329 329 327 327 328 327 327 328 327 327 326 326 325 327 328 328 327 328 330 329 327 326 324 323 322 321 319 316 316 313 313 317 317 313 312 311 310 310 309 309
328 329 329 331 331 331 331 330 330 327 329 329 327 327 328 327 328 326 329 325 324 326 327 329 328 327 328 330 328 326 326 326 327 326 326 326 328 327 326 328 327 327 325 327 325 325 321 320 320 318 315 313 312 314 321 317 315 315 312 311 312 313 311
329 329 330 331 331 330 330 329 329 329 326 326 326 328 326 325 323 321 324 322 323 323 324 325 324 324 327 329 328 329 327 326 326 325 325 325 324 326 324 325 327 327 326 327 327 326 325 320 320 321 314 315 313 312 319 317 317 317 313 313 312 311 313
329 330 330 330 331 330 329 329 328 327 328 325 327 329 328 328 330 321 323 327 322 320 318 317 319 324 328 328 326 327 326 327 326 328 325 327 322 323 324 325 325 326 327 327 328 326 326 326 325 321 318 321 314 313 315 315 313 314 316 316 311 311 313
328 329 330 330 329 329 328 329 329 328 326 324 326 326 326 327 328 326 324 324 321 319 315 312 311 313 318 323 327 325 324 326 324 323 325 323 324 324 325 324 324 327 328 328 328 328 326 324 325 322 322 323 321 316 316 317 316 316 315 314 313 313 314
329 329 328 329 329 328 328 328 328 326 325 326 327 323 326 325 327 323 323 322 319 317 314 310 305 303 310 316 322 327 326 324 325 324 322 322 322 324 322 318 317 316 316 312 307 308 308 313 322 321 319 321 322 324 322 320 317 315 316 316 314 315 315
325 328 327 327 327 327 326 326 326 323 323 322 323 323 323 326 322 322 321 318 316 314 310 306 299 296 298 308 320 323 327 325 326 324 324 324 322 325 319 316 316 314 311 309 305 301 300 303 308 313 313 315 316 319 319 319 317 317 317 314 314 314 312
325 325 326 326 326 325 324 325 321 321 322 322 323 322 323 321 321 321 319 316 313 309 304 298 294 293 294 296 312 320 325 325 325 325 323 322 322 323 321 317 316 315 314 313 306 300 300 298 297 299 300 305 312 316 314 314 314 315 315 316 315 314 312
325 324 325 324 325 326 325 325 324 323 323 322 323 324 323 321 319 318 316 313 311 307 302 295 291 293 293 293 297 313 322 324 326 324 321 323 321 321 320 320 320 322 323 321 317 312 305 299 298 297 297 297 298 300 306 315 313 312 314 311 312 314 314
323 323 323 323 324 324 324 324 324 324 324 325 325 323 321 319 316 315 313 309 306 303 300 293 292 292 292 292 292 303 320 323 324 323 322 322 319 321 323 323 321 322 318 321 320 326 319 312 299 297 299 301 298 297 298 301 305 315 316 314 312 313 315
319 318 319 319 320 320 320 320 321 322 321 321 320 319 318 316 314 312 310 306 302 300 297 293 291 292 292 292 291 296 321 324 322 322 322 322 324 323 323 321 321 321 315 309 306 310 322 322 320 319 320 319 318 316 300 297 296 298 306 315 314 311 315
313 314 315 315 315 315 316 317 318 318 318 318 316 315 314 313 312 310 307 305 302 299 297 292 291 291 291 292 292 299 321 325 325 323 322 324 323 324 323 325 323 319 310 304 299 299 308 317 321 322 320 321 321 323 322 320 317 313 311 312 313 314 315
309 310 310 310 310 310 311 312 313 314 316 316 315 314 313 312 311 309 307 305 301 298 297 291 291 291 291 291 296 314 323 323 322 322 324 324 324 324 323 323 321 311 305 300 294 293 297 310 320 320 320 320 320 320 321 311 304 307 317 320 320 319 319
306 307 308 307 307 307 308 308 308 310 310 310 309 310 312 313 312 309 306 303 301 299 297 293 291 291 291 291 298 311 316 321 320 322 322 323 320 315 316 320 317 308 301 297 292 291 294 302 313 314 315 316 319 320 321 323 312 307 304 303 302 301 300
303 304 304 305 306 306 307 308 308 308 307 306 306 307 307 306 307 308 308 305 303 300 298 294 291 291 291 291 296 307 311 315 319 318 320 320 311 306 303 306 310 303 298 294 290 291 293 301 305 306 306 305 309 312 314 310 314 313 306 306 306 303 300
303 303 303 303 304 304 305 306 307 307 306 305 305 305 305 305 305 306 306 307 307 303 299 296 292 291 291 291 297 307 309 306 306 307 308 309 310 304 299 296 296 296 295 291 289 290 291 298 301 302 302 303 303 305 307 303 303 303 304 305 307 312 313
302 302 302 303 304 304 305 305 306 306 306 307 306 306 305 305 304 304 305 305 305 305 300 296 294 291 291 292 294 304 302 300 300 301 304 304 307 305 303 299 294 290 290 290 290 290 289 291 298 301 301 300 300 302 302 299 300 301 301 301 302 304 305
303 303 303 303 304 305 305 306 306 306 305 306 306 306 306 306 306 305 305 305 302 303 301 297 294 291 291 292 293 297 298 297 298 301 302 303 304 306 306 301 297 292 291 291 291 290 290 289 291 298 300 300 300 300 295 298 299 298 300 301 301 302 303
303 303 303 304 303 303 305 307 307 307 307 306 305 305 305 304 303 303 304 303 301 300 300 299 296 292 291 292 291 293 297 297 296 300 299 299 300 301 302 303 299 293 291 291 291 291 291 291 290 296 299 295 293 291 295 297 298 299 301 301 300 300 301
302 304 303 303 303 302 304 304 305 307 307 307 307 306 305 305 304 303 302 302 301 300 300 299 294 295 291 291 291 291 291 294 292 302 302 300 301 298 301 301 299 295 292 292 291 291 291 290 292 296 293 291 290 290 291 296 297 298 299 299 299 299 299
301 301 302 303 303 303 304 304 304 303 305 304 304 304 304 306 305 303 302 303 304 302 300 299 295 293 293 290 290 290 290 289 290 295 299 301 302 304 299 298 297 292 292 292 292 291 290 290 292 291 290 290 289 291 295 296 296 298 296 296 296 296 297
Wind_Speed
6 6 6 5 4 4 4 3 2 1 3 4 4 5 4 5 4 3 3 3 2 2 5 5 5 7 7 7 6 6 5 6 1 4 6 6 6 2 0 1 1 1 4 3 5 4 5 7 4 2 4 2 4 5 6 6 5 4 6 5 5 7 7
6 6 6 5 4 3 4 2 1 1 3 3 4 5 5 5 4 4 4 3 3 3 3 3 5 5 7 7 6 5 5 7 7 5 5 6 5 4 4 1 2 3 3 4 4 3 4 6 5 5 3 4 5 4 6 6 4 4 3 3 5 6 6
5 6 6 5 5 4 4 3 2 2 2 3 2 3 5 7 6 4 3 4 4 3 2 3 6 3 6 5 4 4 6 5 4 3 6 6 4 4 3 3 2 2 3 2 2 3 4 2 5 6 5 5 3 2 2 4 3 3 5 7 7 7 6
8 8 7 6 5 4 5 3 3 2 3 4 3 2 2 3 4 3 3 3 3 2 1 6 3 6 6 7 6 3 4 6 5 4 4 5 3 4 5 4 3 3 2 2 3 2 2 2 2 5 6 5 5 4 1 3 4 3 3 3 6 7 7
8 8 8 8 7 7 5 4 2 2 6 4 4 2 3 4 1 2 2 1 2 1 1 4 6 3 4 7 6 5 5 5 5 4 4 4 3 2 4 4 4 3 4 5 3 4 5 3 2 4 5 6 6 3 4 3 4 4 4 4 5 7 9
6 8 12 10 9 6 5 5 7 9 5 4 3 4 3 3 4 2 3 3 0 1 1 6 5 5 2 6 7 5 4 5 6 6 6 5 5 4 4 3 5 4 5 3 5 4 2 2 3 4 5 7 5 5 3 3 2 4 5 4 6 8 9
6 4 4 9 11 9 8 7 5 6 5 4 5 3 3 4 3 3 5 2 1 1 1 1 1 4 5 3 7 7 6 2 4 5 6 6 5 5 4 4 4 5 5 5 4 4 4 4 3 3 3 5 6 6 4 4 3 4 3 5 5 9 8
5 4 4 6 6 7 8 7 6 5 4 4 4 3 4 3 4 4 3 5 4 4 3 5 3 3 5 1 3 7 6 4 4 4 4 5 5 5 5 4 5 6 6 4 4 4 5 6 3 3 3 8 5 5 5 4 4 4 4 3 7 7 9
5 5 4 5 4 6 6 6 6 5 4 4 3 3 3 3 3 4 4 3 4 4 0 3 7 5 5 4 3 5 7 4 2 5 2 3 2 3 3 3 3 5 6 6 5 5 5 5 3 5 2 6 7 6 5 5 5 5 6 5 5 10 9
7 5 5 6 5 5 5 4 4 5 5 4 4 2 2 2 2 3 4 6 3 4 5 1 5 4 5 4 5 5 6 7 2 2 6 4 2 2 2 3 3 4 5 5 5 4 3 3 3 5 4 6 6 6 4 5 3 5 5 6 5 5 8
4 5 5 6 4 5 5 5 5 5 4 4 3 2 2 2 1 1 2 6 3 3 4 6 5 5 2 4 4 6 5 8 5 4 4 5 6 3 2 3 3 4 5 4 3 4 4 4 4 4 5 4 5 7 5 5 3 3 4 5 6 6 7
4 4 4 4 4 6 6 5 4 4 5 4 4 3 3 2 3 1 3 4 4 3 4 3 4 7 5 3 4 8 9 10 9 5 5 2 3 5 5 6 5 3 4 4 4 3 3 3 4 4 5 5 3 5 7 5 5 3 4 4 5 8 8
7 6 5 5 5 6 6 5 5 5 4 4 3 4 3 3 3 3 2 3 3 4 3 4 3 4 5 3 3 6 7 7 9 11 8 5 4 4 6 5 5 4 4 4 3 4 4 4 3 4 6 6 4 4 6 6 6 4 4 4 6 9 10
7 6 6 5 5 5 5 6 5 4 4 4 3 2 3 3 3 3 4 3 5 3 4 3 2 2 4 4 3 3 4 4 5 5 8 10 7 4 5 5 4 4 4 4 4 4 4 5 5 7 5 2 3 5 4 5 6 5 2 2 7 7 9
8 7 6 6 5 6 6 5 5 4 4 5 4 5 3 2 3 1 3 3 2 3 4 4 3 2 4 5 3 2 4 5 4 4 2 5 7 5 3 3 6 4 4 5 4 6 5 6 6 6 4 4 4 3 1 5 8 6 6 3 5 7 8
9 7 7 6 6 7 6 5 5 5 4 3 3 3 4 2 2 3 3 3 3 3 3 5 3 2 3 4 5 4 5 5 5 4 4 4 6 6 4 2 4 3 3 3 4 4 5 7 7 7 5 4 4 3 4 3 7 5 6 4 4 7 7
12 9 6 7 7 6 6 5 5 5 5 3 4 3 4 3 2 3 4 4 4 3 4 3 3 4 5 4 3 4 3 4 6 7 6 6 8 5 4 4 4 3 1 4 4 5 5 5 4 3 2 4 6 4 2 5 5 6 4 6 4 5 7
12 11 8 7 7 6 6 5 4 5 4 4 4 3 3 3 2 4 3 5 5 4 3 3 3 3 3 2 3 5 3 4 3 4 4 4 9 9 7 5 5 4 1 1 6 3 5 5 5 4 3 5 6 5 1 3 4 6 6 7 6 4 8
12 11 9 8 8 7 6 5 5 4 5 5 4 3 3 3 4 5 3 3 6 7 6 4 4 3 3 2 3 1 4 3 3 3 5 4 6 7 8 8 6 4 3 3 2 2 3 5 5 2 5 3 5 5 1 2 1 4 5 5 6 6 3
9 9 9 8 7 7 6 5 5 5 4 6 3 2 1 2 1 5 3 1 7 11 10 10 8 4 2 1 4 3 4 3 1 2 2 2 7 5 6 8 7 8 5 3 1 1 4 4 1 3 3 3 5 7 3 2 1 1 1 2 5 5 3
8 7 8 9 8 7 6 6 4 4 5 5 3 3 2 2 2 2 5 11 10 9 9 10 8 7 7 5 3 3 5 3 4 4 4 6 5 4 4 5 5 4 3 2 1 0 3 4 2 1 3 4 5 4 4 4 1 0 1 1 1 1 2
8 7 10 9 8 7 7 5 5 5 4 3 3 3 3 3 1 5 12 9 10 8 8 7 6 5 6 7 6 1 2 2 3 3 4 5 6 4 8 9 8 7 8 8 10 9 7 7 4 6 6 7 5 3 2 1 1 1 1 1 2 2 1
4 8 10 9 8 8 6 5 5 6 4 4 4 3 3 2 4 9 10 10 9 8 7 5 7 8 4 4 3 5 2 1 1 1 2 3 3 1 9 7 8 12 11 11 10 11 12 12 11 8 5 5 6 6 5 4 2 1 1 1 1 1 2
6 7 9 9 9 8 6 5 7 5 5 4 4 4 3 3 5 9 9 9 9 8 6 5 10 8 8 10 7 4 2 2 2 1 3 3 3 3 7 6 5 9 9 8 9 11 11 10 10 11 10 9 6 4 4 5 4 4 5 4 3 1 2
9 8 8 9 8 8 7 7 5 4 5 5 4 4 8 10 10 8 8 9 9 8 5 10 12 12 12 11 8 5 4 2 2 1 3 3 3 3 5 6 4 4 5 6 4 6 8 9 10 10 9 8 6 4 4 2 1 2 3 3 4 4 4
10 9 9 9 8 8 9 8 7 6 5 4 4 7 9 9 10 9 9 10 9 8 6 13 13 13 12 12 11 7 3 5 2 1 3 4 8 7 3 5 4 6 7 12 7 4 2 4 5 7 7 7 9 9 5 3 3 2 1 0 2 3 2
9 9 10 9 9 9 8 8 7 6 7 8 9 9 9 9 9 10 9 10 9 7 7 12 14 14 14 13 13 8 4 4 6 5 6 8 6 5 4 6 7 9 8 9 8 9 8 4 3 1 0 0 0 2 6 9 8 5 3 3 2 3 3
9 9 9 9 10 10 9 7 8 6 7 7 7 7 7 8 8 9 9 9 8 7 6 13 14 15 15 14 14 7 3 3 3 4 4 3 4 3 4 6 9 9 8 7 7 8 8 5 4 4 4 3 2 1 2 3 2 3 4 4 5 5 6
10 9 9 10 11 10 9 8 7 6 7 7 7 8 8 8 8 9 9 9 8 9 7 14 14 15 15 15 14 6 3 1 2 5 4 3 3 7 8 8 9 9 7 7 9 12 10 7 5 5 4 4 4 4 4 5 6 4 2 0 1 2 1
11 11 10 11 10 9 9 9 8 6 8 7 8 8 7 6 6 8 9 9 8 8 7 12 14 15 15 16 12 6 6 1 5 3 4 3 8 9 7 7 10 8 8 7 9 14 14 11 6 7 7 7 6 5 5 6 9 10 8 6 6 4 6
12 12 12 10 9 8 8 7 8 7 7 7 9 7 8 8 8 8 8 8 7 7 6 10 14 15 15 16 11 7 7 4 4 4 2 5 9 9 12 18 13 9 8 7 10 15 15 10 7 6 7 6 6 6 6 7 7 8 14 13 11 11 11
11 12 12 11 9 9 8 7 5 7 7 6 7 6 7 8 7 7 8 8 8 8 7 8 13 14 16 16 12 7 8 8 9 9 8 7 9 8 9 11 15 11 8 7 11 12 13 10 5 4 4 4 4 4 3 7 7 8 9 9 9 9 8
11 11 10 10 9 8 6 6 7 6 6 6 7 6 6 7 7 6 6 6 6 7 7 6 10 14 15 16 15 9 7 8 8 7 6 6 6 7 7 7 8 10 11 10 10 9 8 7 4 2 2 2 3 4 5 7 7 6 7 7 8 8 9
11 10 10 9 6 4 4 4 5 6 6 6 5 5 5 6 6 6 5 5 6 7 6 6 8 12 13 15 16 11 7 7 5 5 5 6 7 5 5 5 5 7 9 9 9 8 7 5 3 1 1 1 2 3 5 5 7 8 7 7 7 8 7
9 8 8 8 8 7 5 4 4 4 4 4 6 5 4 5 5 5 5 5 6 7 7 8 6 9 12 13 13 13 8 6 5 5 6 5 5 5 5 4 4 4 5 7 7 7 5 3 3 3 3 6 7 6 4 4 5 6 6 6 6 6 7
7 6 7 8 8 7 6 6 5 4 3 3 5 4 4 4 5 5 5 4 5 6 6 6 8 7 9 11 10 10 8 6 7 4 3 3 3 4 4 5 5 11 12 10 8 8 8 8 5 4 7 8 7 3 2 4 4 5 5 6 6 7 7
8 8 8 6 4 4 3 3 4 6 4 3 3 4 2 3 5 6 5 4 4 5 6 6 6 9 7 7 7 6 7 7 7 5 3 1 2 3 4 4 4 9 12 13 13 11 9 8 6 10 11 11 8 4 2 3 4 5 5 6 6 7 7
Wind_Direction
155 146 143 150 137 137 147 175 207 198 215 205 185 185 189 193 189 191 182 191 165 197 183 155 141 143 154 160 178 167 147 101 51 158 157 159 165 150 231 161 301 58 79 60 131 151 135 140 147 130 85 62 49 32 99 112 93 116 142 142 118 118 124
135 127 133 133 129 113 125 128 123 280 247 239 203 171 184 193 189 189 190 185 172 219 188 160 113 138 145 142 138 116 136 139 171 196 155 156 154 154 153 136 77 62 82 78 64 74 130 137 134 142 124 44 30 39 70 100 134 166 158 137 124 110 99
122 116 117 120 121 133 132 184 117 291 259 241 236 225 176 192 186 188 185 181 197 204 167 117 110 152 121 128 115 126 138 148 151 159 151 142 135 155 146 134 136 112 71 74 73 84 54 41 148 149 137 129 106 21 51 105 143 87 95 112 122 119 111
133 122 115 130 144 154 160 185 145 201 262 227 208 209 121 258 173 196 166 181 169 177 194 95 117 144 139 130 139 166 142 148 145 138 135 122 144 150 125 136 132 148 139 132 155 119 112 116 91 147 132 150 125 128 232 193 132 159 146 132 105 108 103
140 137 141 155 170 176 148 155 143 292 241 204 180 166 166 184 166 120 179 158 158 127 121 105 138 186 151 137 141 167 149 123 130 140 130 140 163 138 119 123 123 120 96 114 131 121 127 134 172 142 158 139 136 158 180 168 180 155 135 123 111 102 97
132 137 159 169 167 161 152 169 166 193 201 175 172 158 200 148 123 129 75 104 310 78 97 121 134 145 174 124 151 152 134 146 151 148 147 168 161 148 141 139 136 137 126 125 129 132 140 154 248 174 177 143 140 136 149 184 181 144 157 135 123 115 108
139 149 156 150 154 164 162 182 180 163 165 174 164 166 155 151 146 144 142 129 150 247 155 108 110 129 131 161 138 143 127 146 151 141 146 163 155 148 149 145 167 127 132 150 152 150 166 167 224 225 160 119 123 134 154 196 161 145 149 141 135 119 125
138 149 184 164 152 150 147 154 146 163 147 157 150 147 166 153 135 140 141 148 150 179 188 150 119 121 124 19 125 118 135 179 155 122 155 158 151 152 156 161 156 128 141 164 175 184 183 182 202 243 139 132 143 148 172 173 169 156 159 135 130 113 109
140 182 167 117 116 119 130 143 156 159 158 137 117 139 140 140 144 137 155 152 146 153 144 136 141 169 137 145 172 138 143 148 147 128 136 160 151 157 143 131 140 151 156 168 198 183 183 177 208 269 164 144 150 165 176 148 183 135 166 129 117 114 125
172 172 136 128 132 129 131 134 130 110 97 98 114 120 127 129 166 170 174 138 135 131 127 80 91 142 119 176 153 134 127 114 90 198 143 168 170 161 138 159 172 167 168 187 183 156 160 150 207 254 223 170 170 153 154 158 185 140 162 136 130 134 137
140 121 113 131 131 119 110 95 94 107 115 122 133 154 125 117 109 154 99 118 118 122 127 147 153 130 135 97 154 88 106 119 168 228 207 161 180 163 149 188 203 197 177 162 155 157 168 181 210 246 238 225 177 146 165 148 137 151 140 151 132 139 136
132 130 138 143 130 121 118 121 135 125 126 139 144 135 147 159 154 126 103 125 139 137 140 116 129 143 139 180 121 126 157 160 157 161 256 212 191 161 181 198 202 175 153 146 161 155 158 184 213 241 260 258 213 144 165 133 130 184 132 174 136 141 139
151 157 149 145 133 136 138 140 119 134 151 134 137 161 173 156 154 144 161 123 125 137 140 137 141 137 143 139 145 145 150 158 152 149 170 204 209 194 176 175 187 161 138 139 144 155 157 193 210 227 235 238 198 171 159 129 135 151 151 159 138 145 144
151 147 153 151 148 143 135 128 142 142 132 125 141 162 142 158 151 167 148 169 150 145 127 125 123 123 126 127 129 140 131 141 127 134 153 175 183 190 164 175 176 151 159 155 160 170 170 198 219 235 234 241 147 155 151 127 123 121 121 118 140 146 149
153 151 158 162 142 137 131 140 141 146 127 145 175 158 167 109 138 211 135 150 88 115 130 119 129 142 125 137 151 157 148 147 141 145 170 162 154 160 163 177 167 168 173 150 163 177 187 201 216 230 228 229 135 174 185 130 135 140 166 158 151 136 146
140 157 156 151 143 144 140 136 150 131 141 166 158 147 112 154 187 161 107 97 105 91 93 99 107 121 126 143 159 168 168 165 161 159 165 192 151 146 156 181 141 153 147 163 180 203 191 194 212 211 208 149 138 186 218 144 138 144 156 193 178 148 156
149 161 165 146 154 141 140 152 141 151 147 158 139 114 144 172 204 109 104 115 100 104 96 129 162 175 160 157 156 154 168 158 160 173 182 158 134 143 166 162 149 125 189 198 202 199 210 210 238 261 174 126 148 203 186 86 148 137 154 166 248 165 163
150 159 162 152 148 143 144 147 154 141 153 148 116 130 179 126 146 109 139 136 134 133 132 136 143 119 120 173 160 145 148 123 140 176 172 160 144 147 129 129 132 119 143 298 212 201 192 200 226 244 191 145 155 190 197 141 160 147 156 180 198 222 167
151 155 153 149 147 144 152 152 157 146 159 128 117 184 167 161 159 136 174 140 151 149 151 146 113 68 48 26 97 154 123 130 160 197 171 151 134 135 142 125 120 135 150 230 263 270 265 206 232 234 182 183 159 171 172 113 113 147 176 170 176 219 153
146 150 150 146 144 150 156 154 154 152 146 114 158 158 150 139 204 152 172 188 72 59 51 47 35 28 49 42 30 48 94 146 196 113 55 68 111 117 135 145 154 148 167 194 196 311 308 341 93 3 240 162 185 145 169 147 181 199 131 139 194 203 163
153 154 144 147 152 157 148 150 155 139 117 130 159 146 123 108 46 111 73 61 65 65 51 49 30 18 22 4 76 33 35 16 56 40 54 55 88 100 83 89 106 140 144 144 172 342 12 8 346 25 346 32 41 120 126 140 148 121 218 212 156 204 196
149 151 145 153 153 143 144 150 155 124 124 136 132 115 117 120 206 85 68 69 65 62 56 41 33 4 355 13 20 29 60 10 43 65 43 49 42 48 75 82 91 86 87 76 79 85 72 55 44 42 13 22 27 65 45 60 129 219 303 157 237 245 306
235 153 151 153 148 142 143 157 132 124 142 132 113 123 122 112 79 87 81 69 64 57 53 47 12 13 355 4 4 4 87 62 41 41 72 75 91 10 107 111 114 117 113 105 98 90 81 74 66 76 42 44 40 41 24 6 36 7 325 311 244 225 261
175 203 154 142 140 148 154 141 129 142 139 132 124 118 121 83 65 77 85 79 67 61 50 20 360 4 24 30 26 15 16 137 134 189 156 191 170 156 121 128 121 122 121 112 104 106 104 95 95 83 73 74 70 65 56 52 29 25 8 347 330 296 219
162 173 162 132 119 100 87 85 98 116 110 104 105 101 75 82 86 78 76 77 68 58 53 15 6 11 17 19 28 4 353 345 122 251 159 135 128 147 134 125 132 111 98 120 133 124 108 108 114 121 121 112 92 90 98 99 62 22 40 19 349 333 341
157 143 113 104 103 98 90 87 81 72 70 79 81 80 87 75 79 78 73 72 63 48 45 9 7 12 15 9 8 4 351 316 103 312 44 48 62 33 39 111 113 82 58 40 31 14 139 132 118 122 137 147 156 158 163 155 183 162 154 198 275 297 321
116 103 102 97 93 88 84 82 81 73 71 66 72 77 81 81 77 76 73 74 68 51 38 4 12 14 14 5 360 353 324 16 48 31 55 44 46 54 46 56 64 67 49 36 17 6 12 41 41 26 19 94 211 148 167 181 190 190 206 189 190 231 272
72 79 83 90 87 83 81 78 72 72 74 76 78 77 77 76 73 75 78 75 72 55 31 16 20 17 15 8 353 328 322 357 22 78 71 61 74 79 51 61 70 74 63 51 33 4 10 2 9 19 7 358 318 246 217 215 207 196 195 205 208 229 246
61 63 72 76 79 79 74 69 69 71 81 83 85 87 80 80 82 86 84 80 73 54 33 23 23 21 17 9 357 347 306 58 51 61 39 59 55 61 55 73 89 74 61 60 16 24 27 355 17 12 3 341 337 342 353 109 120 95 69 331 308 333 2
57 54 56 65 66 65 66 58 52 59 75 66 67 64 67 73 87 93 89 85 79 62 42 22 25 24 21 14 12 0 349 36 77 72 69 12 58 52 36 73 94 92 80 56 24 33 21 24 30 21 8 359 346 337 335 354 28 24 6 345 321 280 254
57 57 52 46 55 59 60 57 53 42 65 76 72 65 73 71 62 62 73 83 82 76 58 26 26 25 24 17 14 5 339 354 86 56 65 79 77 60 38 41 54 71 64 47 31 40 26 28 38 22 22 351 347 339 18 5 357 350 349 341 321 293 280
47 55 56 50 39 44 45 54 57 60 65 72 78 81 78 79 73 64 60 63 73 76 62 34 27 29 27 22 16 9 24 34 33 23 18 46 81 69 64 49 57 66 72 63 52 46 37 31 40 24 12 337 341 323 36 353 349 344 339 336 326 330 317
48 51 56 56 48 39 31 41 47 59 60 60 67 72 81 79 79 70 61 60 57 68 70 46 31 36 35 29 20 33 43 41 30 15 11 6 78 91 75 75 56 57 62 62 64 64 57 49 48 27 359 349 323 314 2 337 332 329 313 301 298 299 288
41 41 44 49 41 33 32 45 54 62 65 64 70 71 80 89 91 89 82 79 74 65 71 72 45 44 46 42 35 35 53 40 28 17 10 12 24 58 93 90 84 45 48 44 42 42 54 72 65 317 270 266 258 304 339 316 312 315 296 295 289 287 284
49 48 43 42 41 30 16 25 41 67 94 97 90 80 73 85 89 91 99 94 84 86 75 75 79 53 55 54 52 48 55 50 24 27 25 18 10 28 30 71 54 83 70 37 22 23 11 20 312 258 250 247 274 320 332 298 289 284 292 301 299 293 295
41 42 46 44 41 33 18 19 8 20 44 90 112 117 117 113 110 104 104 95 108 109 105 94 89 78 63 62 56 56 53 50 15 38 41 35 14 357 19 33 8 355 357 359 3 353 340 327 310 279 290 299 291 315 270 256 264 283 289 294 299 297 293
42 42 41 36 38 32 30 21 17 21 17 15 54 77 86 140 143 136 124 127 126 115 103 96 87 95 88 72 63 49 30 24 34 24 357 9 53 48 17 11 351 341 340 333 330 328 319 305 285 286 292 292 316 321 249 261 268 269 271 269 272 276 277